Location: Piolenc
(44.1794°N, 4.7641°E)
Time: 04:11:28
(UTC+00:00)

Cosmos 1689 Rocket - Pass Details

Date: 27 January 2021
Orbit: 353 x 367 km, 97.5° (Epoch: 27 February)

Event Time Altitude Azimuth Distance (km) Brightness Sun altitude
Rises 06:01:50 0° 194° (SSW) 2,210 5.9 -11.3°
Reaches altitude 10° 06:04:04 10° 211° (SSW) 1,364 4.7 -10.9°
Maximum altitude 06:06:21 21° 264° (W) 897 3.4 -10.5°
Enters shadow 06:07:46 15° 302° (WNW) 1,099 3.8 -10.3°
